RH
63 68 68 71 67 76 71 79 67 56 45 40 32 33 34 38 42 71 73 87 88 82 80 78 80 80 82 82 81 82 86 84 89 87 87 88 88 87 86 85 85 84 84
63 66 66 66 67 69 66 65 64 53 44 37 32 34 35 38 40 56 68 79 84 78 77 75 76 76 80 81 77 77 80 82 84 85 84 85 85 85 84 83 83 82 82
63 70 67 70 66 66 71 63 62 56 44 37 34 33 35 38 41 48 67 66 79 78 71 70 72 74 74 77 72 69 70 74 76 74 76 80 82 83 82 81 81 81 80
62 64 67 69 72 71 69 72 63 56 45 37 35 34 36 38 42 45 59 66 62 72 68 66 69 73 68 68 65 62 64 63 59 52 65 70 72 74 78 81 79 78 78
65 65 65 65 73 72 72 71 67 61 47 40 37 35 35 38 42 43 46 54 58 54 56 59 66 66 64 62 60 60 62 54 55 57 63 66 69 71 74 76 79 78 77
67 66 66 64 67 74 73 73 72 64 52 44 41 37 34 36 42 43 44 47 50 51 52 50 50 54 52 58 58 58 57 57 57 59 59 62 66 67 71 74 76 76 74
70 71 68 66 65 74 73 77 72 66 56 50 42 35 34 33 37 42 44 43 46 46 47 51 45 42 36 34 32 26 24 31 49 61 60 63 65 69 72 75 76 74 74
76 76 75 70 67 67 76 77 73 70 60 52 42 36 58 44 36 36 44 43 41 41 42 44 45 35 32 31 24 23 22 24 33 54 64 66 72 78 79 78 77 77 76
92 88 79 77 75 70 68 72 76 72 63 54 45 47 72 69 47 37 36 44 41 39 40 41 44 38 35 34 34 31 31 23 28 53 68 70 73 77 76 78 77 76 75
80 80 82 85 81 84 75 74 77 76 67 57 48 46 50 46 57 52 37 38 43 39 39 39 40 37 35 36 37 36 34 32 26 37 65 71 72 73 76 78 77 76 77
81 85 81 79 81 85 81 84 79 82 72 65 58 49 50 48 43 57 60 46 44 44 40 40 38 37 36 36 37 37 42 44 31 31 57 68 72 75 78 79 80 80 80
62 70 83 80 76 87 90 87 88 86 81 70 64 62 55 55 51 51 70 55 49 47 44 40 39 38 37 37 38 41 40 38 33 44 64 68 72 75 80 82 81 81 81
60 66 72 78 78 78 87 95 93 90 87 75 74 71 66 62 56 47 46 54 56 44 44 41 41 40 38 38 39 41 44 44 34 36 66 70 74 78 79 78 79 79 81
54 64 70 72 79 80 77 83 97 96 95 87 80 84 75 66 64 53 50 64 85 68 53 52 50 44 39 39 40 43 44 41 41 54 72 78 76 77 79 79 79 80 79
70 70 73 80 82 82 82 85 91 98 100 98 91 92 86 76 70 62 58 70 77 91 87 73 67 66 49 56 54 58 53 45 53 58 69 79 76 81 81 82 83 82 82
73 78 83 85 84 92 97 91 97 99 100 100 100 98 94 88 84 80 78 72 72 79 94 82 84 85 86 83 71 64 54 45 45 67 84 77 74 72 77 80 82 80 82
90 90 90 86 81 83 90 98 100 100 100 100 100 99 100 98 92 85 76 67 70 81 98 99 96 95 90 71 67 61 57 68 90 88 79 73 73 76 81 84 83 82 83
88 87 86 87 87 89 90 91 95 98 100 100 100 100 100 97 92 86 84 84 90 96 95 96 91 90 86 79 69 82 97 90 67 56 72 77 83 82 77 72 74 81 84
84 85 86 86 88 90 92 93 94 96 99 99 99 98 97 98 96 97 97 95 95 93 94 94 99 98 98 99 99 96 88 70 62 57 77 70 61 60 65 72 80 83 84
80 82 83 81 81 81 84 89 91 92 93 95 94 95 95 94 94 94 91 94 98 100 100 99 99 99 98 99 96 91 78 69 70 63 60 60 63 66 72 72 71 72 75
88 87 85 83 82 81 86 85 87 91 92 92 94 94 92 91 94 95 95 100 99 98 98 98 98 97 98 98 95 74 81 75 62 60 61 63 68 68 64 61 67 69 70
97 96 98 97 98 98 98 99 94 100 100 100 100 100 100 100 100 100 99 100 98 96 98 98 98 93 82 76 74 76 70 71 80 62 72 60 66 65 66 65 66 73 72
100 99 99 99 99 98 99 98 95 98 98 99 100 99 99 99 100 100 100 99 99 97 94 83 81 84 75 67 68 68 68 69 73 67 76 80 76 73 67 66 67 70 73
99 100 100 100 99 100 99 99 94 95 96 98 98 96 97 96 94 86 67 77 76 66 75 84 83 76 73 72 72 74 75 79 82 79 72 76 70 68 62 61 58 69 77
99 98 100 100 99 100 100 96 94 94 96 92 86 84 77 71 76 89 75 74 77 75 71 79 76 76 75 78 83 81 83 84 87 79 73 77 76 71 65 57 58 62 71
100 99 99 99 86 81 89 77 62 64 66 67 69 59 55 64 73 77 80 82 81 74 70 69 64 63 65 66 66 66 68 75 79 85 80 79 78 86 86 70 69 69 71
Wind_Speed
19 16 16 15 12 17 13 16 10 11 12 10 9 9 8 8 8 10 11 14 12 9 8 8 9 9 8 9 8 8 8 9 8 9 10 10 10 10 10 11 11 11 11
21 23 20 19 18 15 14 16 14 14 12 12 12 10 10 10 10 9 11 14 15 12 10 10 10 10 9 8 8 7 7 7 7 7 8 8 8 8 8 9 10 10 10
20 19 21 27 25 22 15 18 17 17 16 16 14 13 13 13 14 11 12 11 16 14 11 11 11 10 10 9 7 6 5 5 5 5 5 6 6 6 7 7 8 9 9
25 23 21 21 25 24 24 17 20 19 19 19 18 16 16 15 15 17 12 13 13 16 15 14 13 12 11 10 8 6 6 4 3 1 2 3 4 5 5 5 6 7 8
27 28 25 23 23 24 26 26 22 23 21 20 19 18 17 17 17 17 19 13 13 14 15 18 17 15 13 11 9 8 6 4 3 1 1 0 1 2 3 4 4 5 7
28 28 29 26 25 27 28 29 26 24 23 23 20 17 17 16 17 19 20 20 18 17 17 17 20 19 18 13 11 10 8 5 4 3 3 2 2 2 3 4 5 5 6
28 30 32 32 28 29 32 32 30 25 25 22 19 13 13 18 18 20 22 21 24 23 19 20 18 21 20 18 16 14 11 8 6 5 4 3 3 4 5 5 6 7 8
24 31 35 36 36 33 30 34 33 29 28 27 19 12 3 9 22 25 22 24 26 26 26 22 20 20 19 18 19 17 14 11 8 6 5 4 3 4 6 7 8 9 11
33 23 30 35 37 35 36 33 36 35 27 31 30 11 3 5 5 19 30 27 27 28 28 28 25 22 20 18 17 17 15 14 10 7 5 3 4 6 7 9 10 11 12
29 29 32 30 32 34 33 35 35 39 29 30 32 33 15 8 4 2 14 30 28 28 29 30 29 26 26 24 21 19 17 14 13 10 5 4 5 7 9 11 12 12 13
24 27 23 35 32 33 34 30 35 35 41 31 32 28 34 19 13 3 3 10 26 30 29 30 30 29 28 26 24 21 19 16 13 12 8 6 6 8 10 12 14 14 15
26 25 27 23 32 29 32 35 34 34 36 34 36 31 28 18 15 9 2 4 11 20 30 27 28 29 29 26 22 22 21 17 15 11 7 7 8 10 11 12 14 15 16
18 19 23 25 26 29 32 31 35 35 32 38 34 35 38 32 22 25 9 4 3 5 13 23 22 25 26 25 24 22 18 16 14 12 8 8 9 11 13 14 14 16 17
19 15 12 22 25 24 25 31 33 34 34 37 39 33 35 37 33 23 23 12 1 1 4 5 18 19 21 22 20 17 18 15 13 10 9 10 12 12 13 16 16 17 18
10 14 15 11 13 19 19 22 28 30 31 33 35 35 31 30 30 25 21 17 10 5 3 7 9 18 20 18 18 17 14 11 11 10 11 14 17 15 14 16 18 18 19
13 12 13 14 12 10 12 17 23 25 25 28 27 26 27 25 25 26 27 22 18 10 3 6 10 21 24 23 17 19 22 23 20 17 13 15 17 17 17 19 20 20 20
10 10 12 15 16 16 13 11 11 12 12 12 17 20 24 25 23 20 19 19 18 17 5 7 15 18 17 18 19 20 23 21 21 19 15 16 18 18 18 21 21 20 20
7 7 7 6 7 8 10 10 10 10 10 12 12 14 16 16 16 15 15 16 15 15 10 8 13 18 22 22 18 19 19 16 15 17 15 16 17 19 20 20 21 21 21
9 8 7 6 5 4 4 5 6 5 6 6 8 11 12 13 13 12 12 12 13 12 13 13 9 14 16 16 13 15 14 14 16 14 12 14 16 18 19 20 20 20 20
9 11 12 11 10 9 5 2 1 1 1 3 3 6 7 8 12 12 13 14 14 14 11 11 7 6 6 8 9 12 14 10 10 9 13 16 19 19 17 16 17 18 19
10 10 10 12 13 12 11 7 6 5 5 6 6 5 5 7 9 10 12 12 11 9 7 8 7 5 7 7 10 7 10 7 8 15 19 15 14 14 17 21 20 20 18
15 15 16 17 18 16 11 9 6 9 10 12 14 14 12 12 10 7 6 7 6 8 9 5 5 3 7 9 11 11 3 5 4 12 6 23 23 21 20 21 19 17 18
18 20 21 21 20 16 14 14 12 14 15 14 13 12 9 7 7 7 6 4 5 1 1 3 5 6 6 4 5 8 11 12 14 19 18 25 19 22 22 23 20 19 19
21 20 18 18 19 16 15 13 12 14 15 13 10 9 6 5 4 3 2 2 2 1 6 7 7 7 7 7 7 8 9 11 14 16 15 15 15 26 22 21 23 20 18
18 17 16 16 17 16 14 13 12 12 11 10 10 9 8 6 5 3 4 5 4 4 4 5 6 9 11 11 11 12 13 14 13 10 18 17 11 18 26 24 10 10 12
15 15 16 15 14 14 12 11 11 11 10 9 6 6 4 1 3 2 3 6 3 2 4 8 11 11 12 11 11 11 12 13 12 8 4 4 9 12 10 11 11 27 25
Wind_Direction
202 198 209 210 204 208 211 214 213 214 220 217 203 199 194 191 175 192 183 185 185 171 154 150 148 147 143 129 121 116 108 103 92 85 82 77 73 68 64 58 55 55 53
214 212 211 215 210 209 208 215 212 218 222 214 214 208 206 193 189 213 194 196 198 195 179 169 167 163 156 145 132 125 118 107 106 94 84 78 71 64 59 53 47 47 47
223 222 218 224 226 221 224 219 218 216 212 214 213 211 206 203 196 199 211 208 205 205 201 180 178 177 171 166 153 144 134 130 111 96 87 79 71 61 49 44 39 35 36
224 223 225 232 222 218 220 233 217 215 211 213 209 211 210 205 204 200 205 210 213 213 204 190 184 183 180 175 173 165 161 157 147 97 77 80 61 49 37 30 22 20 19
223 225 228 230 229 222 222 226 226 218 214 217 217 217 212 211 206 206 207 207 212 215 209 205 191 191 185 183 178 175 175 175 186 219 207 325 51 36 18 6 358 353 351
223 223 226 228 234 222 222 221 227 216 220 221 214 217 213 216 217 213 211 213 211 209 217 216 210 207 201 194 190 190 195 207 216 220 229 246 274 322 328 330 326 327 329
232 223 224 224 227 223 222 219 218 212 213 216 204 211 212 226 223 223 220 216 215 214 214 216 222 216 213 214 218 219 225 229 226 213 221 238 263 293 303 308 309 309 308
232 228 227 225 222 225 218 215 214 208 214 205 190 153 215 238 235 225 221 220 219 220 215 223 221 218 219 225 227 229 230 231 230 215 210 226 258 278 295 298 300 301 301
248 233 236 233 228 225 226 222 216 211 203 204 204 178 170 217 183 222 224 219 219 216 218 216 221 215 218 221 223 225 229 230 226 214 197 220 257 284 293 297 297 297 297
255 257 241 244 242 235 230 224 222 215 208 202 209 217 227 169 181 203 221 221 219 218 219 217 220 218 217 219 226 230 231 224 218 216 208 228 266 284 292 294 295 294 292
253 250 253 243 247 247 242 234 228 218 214 208 206 216 227 229 223 154 188 213 221 220 221 219 221 220 222 215 222 228 221 214 226 226 225 246 264 276 286 290 292 292 291
254 249 250 251 249 252 244 240 240 230 222 215 216 217 216 209 216 203 181 178 209 219 218 220 220 220 222 225 222 224 227 226 220 222 233 250 271 280 280 283 288 290 290
256 249 255 252 247 252 257 250 242 239 233 223 223 226 228 224 222 219 205 157 162 186 205 210 222 225 216 216 217 226 227 223 225 233 247 265 274 279 282 284 285 286 286
297 308 300 268 261 252 259 256 251 246 236 234 228 233 234 232 228 222 216 187 50 35 142 160 197 205 212 208 213 231 242 236 240 247 260 278 283 277 282 287 285 285 284
323 301 302 322 276 267 272 264 259 252 239 237 233 232 235 233 232 228 224 225 190 190 225 158 158 185 208 214 210 206 222 225 230 248 266 281 282 279 281 281 284 286 285
298 299 304 307 305 295 277 271 263 257 246 242 235 232 235 237 238 237 238 233 207 166 172 173 216 187 200 209 202 216 221 223 234 256 267 273 276 278 282 281 283 285 284
340 334 324 313 305 296 296 280 275 272 258 234 236 238 236 237 231 230 221 212 206 202 148 165 207 189 193 210 219 223 235 251 267 268 270 270 274 279 279 280 281 281 277
5 357 344 336 311 302 287 277 284 283 270 244 230 225 223 226 231 221 212 212 211 209 183 144 189 192 198 212 225 245 259 271 279 280 274 277 283 283 285 284 284 281 280
33 25 25 38 25 5 327 298 261 251 267 248 240 236 239 244 229 212 204 187 186 191 196 183 175 192 199 222 237 257 270 279 281 284 282 283 282 284 286 283 281 280 277
45 35 34 35 42 38 44 31 347 43 163 208 220 228 222 221 220 198 184 178 176 168 164 163 147 165 202 228 249 269 276 277 282 290 282 284 286 288 284 283 285 282 284
57 52 48 46 43 44 32 38 62 89 114 122 130 144 161 162 186 187 179 170 168 157 146 161 144 185 214 217 225 261 257 280 280 286 294 294 295 286 276 287 288 288 288
75 72 67 67 64 59 56 65 82 100 109 108 108 111 111 116 113 122 146 152 167 166 172 177 178 204 231 244 256 255 239 306 317 312 306 294 303 295 296 300 300 293 291
88 90 89 85 80 76 75 81 97 101 100 104 106 106 111 107 113 116 120 130 166 142 240 212 212 231 258 290 296 290 292 297 284 293 300 291 299 292 301 303 297 292 292
90 88 89 88 83 73 76 78 88 95 101 105 104 98 73 50 52 79 45 13 16 309 241 233 251 260 266 277 287 288 301 300 288 289 296 281 299 302 314 307 305 298 294
94 93 90 88 85 76 73 79 77 78 80 79 74 72 53 33 32 353 317 301 309 293 268 238 278 287 287 287 283 283 279 293 302 297 302 283 302 315 313 312 322 318 305
96 90 85 81 77 77 64 58 55 56 60 65 71 39 44 52 10 342 308 349 1 16 305 288 294 290 281 282 284 275 276 267 274 310 52 323 303 330 321 303 297 304 312